sat.trackr.live / text

‹ back to catalog

STARLINK-2140

NORAD 47730 · 2021-017J

PAYLOAD ACTIVE UNKNOWN

§ Identity

Operator
Country
US
Launch date
2021-03-04
Launch site
AFETR
Launch vehicle
Mass (kg)
RCS (m²)

Purposes: comms

External: N2YO · Heavens-Above · Gunter

§ Orbital elements

Epoch: 2026-09-19T23:28:55.241760Z

Period
94.01 min
Inclination
53.1609°
Eccentricity
0.0001299
Mean motion
15.31701233 rev/d
Perigee alt
469.8 km
Apogee alt
471.6 km
Semi-major
6,848.9 km
B*
-1.8608e-5
RAAN
32.7876°
Arg perigee
72.6272°
Mean anomaly
287.4871°
Rev number
30,742

§ Raw data

STARLINK-21401 47730U 21017J   26262.97841715 -.00000943  00000+0 -18608-4 0  99962 47730  53.1609  32.7876 0001299  72.6272 287.4871 15.31701233307426

JSON: /api/v1/satellites/47730 · /tle

For live sub-satellite position, see the globe view (requires WebGL).

§ Visibility from observer

Set your observer location to see the next 7 days of passes ≥ 10°. The values pass through the URL so the page stays shareable.

No JS? Fill the form by hand. The geolocation button needs JavaScript.